Winona, MN

9:15 PM CST on December 03, 2016 (GMT -0600)
Winona Municipal-Conrad

Weather History for KONA - January, 2013

Change the Weather History Date:

Friday, January 18, 2013

  Actual Average Record
Temperature  
Mean Temperature 32 °F -  
Max Temperature 46 °F 22 °F 46 °F (2013)
Min Temperature 17 °F 5 °F -14 °F (1993)
Degree Days  
Heating Degree Days 34    
Moisture  
Dew Point 23 °F    
Average Humidity 71    
Maximum Humidity 86    
Minimum Humidity 53    
Precipitation  
Precipitation 0.00 in - - ()
Sea Level Pressure  
Sea Level Pressure 29.96 in    
Wind  
Wind Speed 6 mph (SSW)    
Max Wind Speed 13 mph    
Max Gust Speed 20 mph    
Visibility 10 miles    
Events Snow    
Averages and records for this station are not official NWS values.
T = Trace of Precipitation, MM = Missing Value Source: NWS Daily Summary

Daily Weather History Graph

Daily Weather History Graph

Search for Another Location

Airport or City:

Trip Planner

Search our weather history database for the weather conditions in past years. The results will help you decide how hot, cold, wet, or windy it might be!

Date:

Astronomy

Jan. 18, 2013 Rise Set
Actual Time 7:36 AM CST 4:58 PM CST
Civil Twilight 7:04 AM CST 5:30 PM CST
Nautical Twilight 6:29 AM CST 6:05 PM CST
Astronomical Twilight 5:54 AM CST 6:40 PM CST
Moon 10:57 AM CST (1/18) 12:06 AM CST (1/18)
Length of Visible Light 10h 25m
Length of Day
9h 21m
Waxing Crescent, 47% of the Moon is Illuminated
Jan 18
Waxing Crescent
Jan 18
First Quarter
Jan 26
Full
Feb 3
Last Quarter
Feb 10
New

Hourly Weather History & Observations

Time (CST) Temp. Windchill Dew Point Humidity Pressure Visibility Wind Dir Wind Speed Gust Speed Precip Events Conditions
12:15 AM 17.6 °F - 10.4 °F 73% 30.35 in 10.0 mi Calm Calm - N/A   Clear
12:34 AM 17.6 °F - 10.4 °F 73% 30.35 in 10.0 mi Calm Calm - N/A   Mostly Cloudy
12:54 AM 19.4 °F 14.3 °F 12.2 °F 74% 30.34 in 10.0 mi SE 3.5 mph - N/A   Overcast
1:15 AM 19.4 °F 12.8 °F 12.2 °F 74% 30.34 in 10.0 mi SE 4.6 mph - N/A   Overcast
1:34 AM 19.4 °F 10.4 °F 12.2 °F 74% 30.32 in 10.0 mi ESE 6.9 mph - N/A   Overcast
1:54 AM 19.4 °F 10.4 °F 10.4 °F 68% 30.31 in 10.0 mi SE 6.9 mph - N/A   Overcast
2:15 AM 19.4 °F 11.5 °F 12.2 °F 74% 30.32 in 7.0 mi SE 5.8 mph - N/A Snow Light Snow
2:34 AM 19.4 °F 11.5 °F 12.2 °F 74% 30.31 in 1.8 mi ESE 5.8 mph - N/A Snow Light Snow
2:54 AM 19.4 °F 9.5 °F 14.0 °F 80% 30.29 in 2.0 mi SE 8.1 mph - N/A Snow Light Snow
3:15 AM 19.4 °F 8.6 °F 14.0 °F 80% 30.28 in 10.0 mi ESE 9.2 mph - N/A   Overcast
3:34 AM 19.4 °F 9.5 °F 14.0 °F 80% 30.26 in 10.0 mi SE 8.1 mph - N/A   Overcast
3:54 AM 19.4 °F 8.6 °F 14.0 °F 80% 30.24 in 10.0 mi SE 9.2 mph - N/A   Overcast
4:15 AM 19.4 °F 8.6 °F 14.0 °F 80% 30.22 in 10.0 mi ESE 9.2 mph - N/A   Overcast
4:34 AM 19.4 °F 7.9 °F 14.0 °F 80% 30.21 in 10.0 mi SE 10.4 mph - N/A   Overcast
4:54 AM 19.4 °F 9.5 °F 14.0 °F 80% 30.19 in 10.0 mi SE 8.1 mph - N/A   Overcast
5:15 AM 19.4 °F 7.9 °F 14.0 °F 80% 30.17 in 10.0 mi SE 10.4 mph - N/A   Mostly Cloudy
5:34 AM 19.4 °F 8.6 °F 14.0 °F 80% 30.15 in 10.0 mi SE 9.2 mph - N/A   Mostly Cloudy
5:54 AM 19.4 °F 9.5 °F 14.0 °F 80% 30.14 in 10.0 mi SE 8.1 mph - N/A   Mostly Cloudy
6:15 AM 19.4 °F 8.6 °F 14.0 °F 80% 30.12 in 10.0 mi SE 9.2 mph - N/A   Scattered Clouds
6:34 AM 19.4 °F 8.6 °F 14.0 °F 80% 30.10 in 10.0 mi SE 9.2 mph - N/A   Clear
6:54 AM 21.2 °F 11.7 °F 15.8 °F 80% 30.08 in 10.0 mi SE 8.1 mph - N/A   Clear
7:15 AM 21.2 °F 10.9 °F 15.8 °F 80% 30.05 in 10.0 mi SE 9.2 mph - N/A   Clear
7:34 AM 21.2 °F 11.7 °F 17.6 °F 86% 30.03 in 10.0 mi SE 8.1 mph - N/A   Clear
7:54 AM 23.0 °F 15.8 °F 17.6 °F 80% 30.02 in 10.0 mi SE 5.8 mph - N/A   Clear
8:14 AM 23.0 °F 17.0 °F 19.4 °F 86% 30.00 in 10.0 mi SE 4.6 mph - N/A   Clear
8:34 AM 26.6 °F 19.1 °F 19.4 °F 74% 29.99 in 10.0 mi SE 6.9 mph - N/A   Clear
8:54 AM 28.4 °F 23.3 °F 21.2 °F 74% 29.98 in 10.0 mi South 4.6 mph - N/A   Clear
9:14 AM 30.2 °F 25.4 °F 21.2 °F 69% 29.98 in 10.0 mi South 4.6 mph - N/A   Clear
9:34 AM 32.0 °F 28.7 °F 24.8 °F 75% 29.97 in 10.0 mi South 3.5 mph - N/A   Clear
9:54 AM 32.0 °F 25.6 °F 24.8 °F 75% 29.96 in 10.0 mi South 6.9 mph - N/A   Clear
10:14 AM 32.0 °F 26.4 °F 24.8 °F 75% 29.94 in 10.0 mi South 5.8 mph - N/A   Clear
10:34 AM 33.8 °F 27.0 °F 24.8 °F 70% 29.92 in 10.0 mi SSW 8.1 mph 17.3 mph N/A   Clear
10:54 AM 37.4 °F 30.3 °F 26.6 °F 65% 29.90 in 10.0 mi SSW 10.4 mph - N/A   Clear
11:14 AM 37.4 °F 30.3 °F 26.6 °F 65% 29.89 in 10.0 mi SSW 10.4 mph 16.1 mph N/A   Clear
11:34 AM 37.4 °F 29.8 °F 26.6 °F 65% 29.87 in 10.0 mi SSW 11.5 mph 19.6 mph N/A   Clear
11:54 AM 39.2 °F 33.0 °F 26.6 °F 61% 29.86 in 10.0 mi SW 9.2 mph - N/A   Clear
12:14 PM 41.0 °F 34.7 °F 26.6 °F 57% 29.83 in 10.0 mi SW 10.4 mph - N/A   Clear
12:34 PM 41.0 °F 35.8 °F 26.6 °F 57% 29.82 in 10.0 mi SW 8.1 mph 19.6 mph N/A   Clear
12:54 PM 42.8 °F 38.6 °F 28.4 °F 57% 29.81 in 10.0 mi WSW 6.9 mph - N/A   Clear
1:14 PM 44.6 °F 41.4 °F 28.4 °F 53% 29.79 in 10.0 mi SW 5.8 mph - N/A   Clear
1:35 PM 46.4 °F 42.9 °F 30.2 °F 53% 29.78 in 10.0 mi WSW 6.9 mph - N/A   Clear
1:54 PM 46.4 °F 40.7 °F 30.2 °F 53% 29.77 in 10.0 mi SW 12.7 mph 19.6 mph N/A   Clear
2:14 PM 46.4 °F 40.7 °F 30.2 °F 53% 29.77 in 10.0 mi SW 12.7 mph 19.6 mph N/A   Clear
2:35 PM 46.4 °F 41.9 °F 30.2 °F 53% 29.78 in 10.0 mi SW 9.2 mph - N/A   Clear
2:54 PM 46.4 °F 41.1 °F 32.0 °F 57% 29.77 in 10.0 mi SW 11.5 mph - N/A   Clear
3:14 PM 44.6 °F 41.4 °F 30.2 °F 57% 29.77 in 10.0 mi SW 5.8 mph - N/A   Clear
3:35 PM 44.6 °F - 30.2 °F 57% 29.76 in 10.0 mi Calm Calm - N/A   Clear
3:54 PM 44.6 °F 42.2 °F 30.2 °F 57% 29.76 in 10.0 mi WSW 4.6 mph - N/A   Clear
4:14 PM 44.6 °F 39.2 °F 32.0 °F 61% 29.77 in 10.0 mi WSW 10.4 mph - N/A   Clear
4:35 PM 42.8 °F 39.3 °F 30.2 °F 61% 29.77 in 10.0 mi WSW 5.8 mph - N/A   Clear
4:54 PM 42.8 °F 38.0 °F 30.2 °F 61% 29.78 in 10.0 mi WSW 8.1 mph - N/A   Clear
5:14 PM 41.0 °F 37.1 °F 30.2 °F 65% 29.78 in 10.0 mi SW 5.8 mph - N/A   Clear
5:35 PM 41.0 °F 36.4 °F 30.2 °F 65% 29.78 in 10.0 mi WSW 6.9 mph - N/A   Clear
5:54 PM 41.0 °F 35.8 °F 30.2 °F 65% 29.78 in 10.0 mi WSW 8.1 mph - N/A   Clear
6:14 PM 39.2 °F 35.9 °F 30.2 °F 70% 29.78 in 10.0 mi WSW 4.6 mph - N/A   Clear
6:35 PM 39.2 °F 34.2 °F 30.2 °F 70% 29.78 in 10.0 mi West 6.9 mph - N/A   Clear
6:54 PM 39.2 °F 33.0 °F 30.2 °F 70% 29.79 in 10.0 mi West 9.2 mph - N/A   Clear
7:14 PM 37.4 °F 32.8 °F 30.2 °F 75% 29.79 in 10.0 mi West 5.8 mph - N/A   Clear
7:35 PM 37.4 °F 32.8 °F 30.2 °F 75% 29.79 in 10.0 mi West 5.8 mph - N/A   Clear
7:54 PM 37.4 °F 34.9 °F 30.2 °F 75% 29.80 in 10.0 mi West 3.5 mph - N/A   Clear
8:14 PM 37.4 °F 33.8 °F 28.4 °F 70% 29.80 in 10.0 mi West 4.6 mph - N/A   Clear
8:34 PM 37.4 °F 32.8 °F 28.4 °F 70% 29.81 in 10.0 mi WNW 5.8 mph - N/A   Clear
8:54 PM 35.6 °F 29.9 °F 30.2 °F 81% 29.81 in 10.0 mi WNW 6.9 mph - N/A   Clear
9:14 PM 37.4 °F 32.8 °F 28.4 °F 70% 29.80 in 10.0 mi WNW 5.8 mph 16.1 mph N/A   Clear
9:34 PM 35.6 °F 32.8 °F 28.4 °F 75% 29.81 in 10.0 mi NW 3.5 mph - N/A   Clear
9:54 PM 35.6 °F 30.7 °F 30.2 °F 81% 29.81 in 10.0 mi West 5.8 mph - N/A   Clear
10:14 PM 35.6 °F 30.7 °F 28.4 °F 75% 29.81 in 10.0 mi WNW 5.8 mph - N/A   Clear
10:34 PM 35.6 °F 31.7 °F 28.4 °F 75% 29.81 in 10.0 mi WNW 4.6 mph - N/A   Clear
10:54 PM 33.8 °F 30.8 °F 28.4 °F 81% 29.81 in 10.0 mi West 3.5 mph - N/A   Clear
11:14 PM 33.8 °F - 28.4 °F 81% 29.80 in 10.0 mi Calm Calm - N/A   Clear
11:34 PM 33.8 °F - 28.4 °F 81% 29.80 in 10.0 mi Calm Calm - N/A   Clear